Terug naar catalogus

GLOBALSTAR M082

ActiefCommunicatieLEO
NORAD 38042·PAYLOAD·🇺🇸 United States

Gelanceerd Dec 28, 2011 vanaf Baikonur Cosmodrome

Loading…

Volgende Passages (komende 24 uur)

TLE

VersSource: Space-Track

Epoch: Sep 14, 2026, 11:45 UTC

1 38042U 11080C   26257.48964758 -.00000116  00000-0 -66871-4 0  9992
2 38042  52.0074  62.6711 0000956 104.5240 290.1493 12.62262840680876

Volg GLOBALSTAR M082 in realtime met AllMySat

Download on the App Store